Weather History for Baker, MT

Change the Weather History Date:

Sunday, January 20, 2013

  Actual Average Record
Temperature  
Mean Temperature 4 °F -  
Max Temperature 15 °F 30 °F 51 °F (2005)
Min Temperature -6 °F 18 °F -6 °F (2013)
Degree Days  
Heating Degree Days 60    
Moisture  
Dew Point -1 °F    
Average Humidity 71    
Maximum Humidity 79    
Minimum Humidity 54    
Precipitation  
Precipitation 0.00 in - - ()
Sea Level Pressure  
Sea Level Pressure 30.44 in    
Wind  
Wind Speed 13 mph (NNW)    
Max Wind Speed 24 mph    
Max Gust Speed 25 mph    
Visibility 6 miles    
Events Snow    
Averages and records for this station are not official NWS values.
T = Trace of Precipitation, MM = Missing Value Source: NWS Daily Summary

Daily Weather History Graph

Daily Weather History Graph

Search for Another Location

Airport:

Trip Planner

Search our weather history database for the weather conditions in past years. The results will help you decide how hot, cold, wet, or windy it might be!

Date:

Astronomy

Jan. 20, 2013 Rise Set
Actual Time 7:32 AM MST 4:44 PM MST
Civil Twilight 6:59 AM MST 5:17 PM MST
Nautical Twilight 6:22 AM MST 5:54 PM MST
Astronomical Twilight 5:46 AM MST 6:30 PM MST
Moon 11:48 AM MST (1/20) 2:05 AM MST (1/20)
Length of Visible Light 10h 18m
Length of Day
9h 12m
Waxing Gibbous, 67% of the Moon is Illuminated
Jan 20
Waxing Gibbous
Jan 26
Full
Feb 3
Last Quarter
Feb 10
New
Feb 17
First Quarter

Hourly Weather History & Observations

Time (MST) Temp. Windchill Dew Point Humidity Pressure Visibility Wind Dir Wind Speed Gust Speed Precip Events Conditions
12:51 AM 14.0 °F 2.9 °F 7.0 °F 74% 30.27 in 10.0 mi ESE 8.1 mph - N/A   Overcast
1:51 AM 14.0 °F 3.9 °F 7.0 °F 74% 30.30 in 10.0 mi ENE 6.9 mph - N/A   Overcast
2:51 AM 14.0 °F 3.9 °F 7.0 °F 74% 30.36 in 8.0 mi ENE 6.9 mph - 0.00 in Snow Light Snow
3:51 AM 14.0 °F 8.2 °F 8.1 °F 77% 30.39 in 6.0 mi North 3.5 mph - 0.00 in Snow Light Snow
4:24 AM 15.8 °F 6.1 °F 8.6 °F 73% 30.27 in 5.0 mi NNW 6.9 mph - 0.00 in Snow Light Snow
4:29 AM 15.8 °F 6.1 °F 8.6 °F 73% 30.27 in 4.0 mi NNW 6.9 mph - 0.00 in Snow Light Snow
4:51 AM 15.1 °F 6.4 °F 9.0 °F 77% 30.42 in 5.0 mi NW 5.8 mph - 0.00 in Snow Light Snow
5:36 AM 14.0 °F -0.2 °F 8.6 °F 79% 30.31 in 2.5 mi NNW 12.7 mph - 0.00 in Snow Light Snow
5:45 AM 14.0 °F -1.4 °F 8.6 °F 79% 30.32 in 3.0 mi NNW 15.0 mph - 0.00 in Snow Light Snow
5:51 AM 14.0 °F -2.0 °F 8.1 °F 77% 30.48 in 3.0 mi NNW 16.1 mph - 0.00 in Snow Light Snow
5:57 AM 14.0 °F -2.0 °F 8.6 °F 79% 30.33 in 2.5 mi NNW 16.1 mph - 0.00 in Snow Light Snow
6:10 AM 12.2 °F -5.3 °F 6.8 °F 79% 30.33 in 1.8 mi NNW 18.4 mph 24.2 mph 0.00 in Snow Light Snow
6:15 AM 12.2 °F -4.3 °F 6.8 °F 79% 30.34 in 2.5 mi NNW 16.1 mph 24.2 mph 0.00 in Snow Light Snow
6:20 AM 12.2 °F -4.3 °F 6.8 °F 79% 30.34 in 3.0 mi NNW 16.1 mph 25.3 mph 0.00 in Snow Light Snow
6:31 AM 12.2 °F -4.8 °F 6.8 °F 79% 30.35 in 2.5 mi NNW 17.3 mph 25.3 mph 0.00 in Snow Light Snow
7:32 AM 10.4 °F -8.6 °F 3.2 °F 73% 30.38 in 4.0 mi NNW 20.7 mph - 0.00 in Snow Light Snow
7:38 AM 8.6 °F -11.0 °F 3.2 °F 79% 30.38 in 5.0 mi NNW 20.7 mph - 0.00 in Snow Light Snow
7:51 AM 9.0 °F -10.0 °F 3.0 °F 77% 30.56 in 2.5 mi NNW 19.6 mph - 0.00 in Snow Light Snow
8:11 AM 8.6 °F -11.0 °F 1.4 °F 73% 30.40 in 1.8 mi NNW 20.7 mph - 0.00 in Snow Light Snow
8:17 AM 8.6 °F -10.0 °F 1.4 °F 73% 30.39 in 2.0 mi NNW 18.4 mph - 0.00 in Snow Light Snow
8:20 AM 8.6 °F -9.5 °F 1.4 °F 73% 30.39 in 3.0 mi NNW 17.3 mph - 0.00 in Snow Light Snow
8:51 AM 8.1 °F -7.7 °F 1.9 °F 76% 30.56 in 7.0 mi NW 12.7 mph - 0.00 in Snow Light Snow
9:51 AM 9.0 °F -7.9 °F 1.9 °F 73% 30.59 in 3.0 mi NW 15.0 mph - 0.00 in Snow Light Snow
9:58 AM 8.6 °F -10.5 °F 1.4 °F 73% 30.43 in 2.0 mi NNW 19.6 mph 23.0 mph 0.00 in Snow Light Snow
10:10 AM 8.6 °F -12.3 °F -0.4 °F 67% 30.43 in 5.0 mi NW 24.2 mph - 0.00 in Snow Light Snow
10:22 AM 6.8 °F -13.4 °F -0.4 °F 72% 30.43 in 4.0 mi NNW 20.7 mph - 0.00 in Snow Light Snow
10:51 AM 7.0 °F -11.0 °F -0.9 °F 70% 30.61 in 4.0 mi NW 16.1 mph 25.3 mph 0.00 in Snow Light Snow
11:02 AM 6.8 °F -11.8 °F -2.2 °F 67% 30.44 in 6.0 mi NW 17.3 mph 23.0 mph 0.00 in Snow Light Snow
11:51 AM 7.0 °F -9.1 °F -2.0 °F 67% 30.60 in 6.0 mi NNW 12.7 mph 24.2 mph 0.00 in Snow Light Snow
12:10 PM 6.8 °F -10.0 °F -2.2 °F 67% 30.42 in 9.0 mi NW 13.8 mph - 0.00 in Snow Light Snow
12:41 PM 5.0 °F -13.0 °F -2.2 °F 72% 30.40 in 9.0 mi NNW 15.0 mph - 0.00 in Snow Light Snow
12:51 PM 5.0 °F -13.0 °F -2.9 °F 70% 30.56 in 8.0 mi NNW 15.0 mph - 0.00 in Snow Light Snow
1:00 PM 3.2 °F -13.9 °F -2.2 °F 78% 30.39 in 9.0 mi NW 12.7 mph 21.9 mph 0.00 in Snow Light Snow
1:17 PM 5.0 °F -14.2 °F -4.0 °F 66% 30.39 in 9.0 mi NW 17.3 mph 24.2 mph 0.00 in Snow Light Snow
1:24 PM 5.0 °F -13.6 °F -4.0 °F 66% 30.39 in 9.0 mi NW 16.1 mph 24.2 mph 0.00 in Snow Light Snow
2:15 PM 3.2 °F -18.1 °F -5.8 °F 66% 30.38 in 9.0 mi NW 20.7 mph - 0.00 in Snow Light Snow
2:25 PM 3.2 °F -16.5 °F -5.8 °F 66% 30.39 in 9.0 mi NW 17.3 mph - 0.00 in Snow Light Snow
2:39 PM 3.2 °F -14.6 °F -5.8 °F 66% 30.39 in 10.0 mi NW 13.8 mph - 0.00 in   Overcast
2:51 PM 1.9 °F -15.5 °F -6.0 °F 69% 30.58 in 10.0 mi NNW 12.7 mph - 0.00 in   Overcast
4:02 PM -0.4 °F -19.9 °F -9.4 °F 66% 30.39 in 10.0 mi NW 15.0 mph - 0.00 in   Overcast
4:51 PM -0.9 °F -22.4 °F -11.0 °F 62% 30.58 in 9.0 mi NW 18.4 mph - 0.00 in Snow Light Snow
5:51 PM -2.9 °F -23.1 °F -13.0 °F 62% 30.58 in 10.0 mi NW 15.0 mph - 0.00 in   Overcast
6:51 PM -2.0 °F -23.9 °F -13.0 °F 60% 30.58 in 10.0 mi WNW 18.4 mph 21.9 mph N/A   Overcast
7:51 PM -2.0 °F -21.9 °F -15.0 °F 54% 30.56 in 10.0 mi WNW 15.0 mph 25.3 mph 0.00 in   Overcast
8:51 PM -5.1 °F -19.1 °F -16.1 °F 59% 30.58 in 10.0 mi NW 6.9 mph - N/A   Clear
9:51 PM -6.0 °F -22.6 °F -17.0 °F 59% 30.58 in 10.0 mi WNW 9.2 mph - N/A   Clear
10:51 PM -6.0 °F -23.6 °F -16.1 °F 62% 30.57 in 10.0 mi WNW 10.4 mph - N/A   Clear
11:51 PM -4.0 °F -20.2 °F -14.1 °F 62% 30.55 in 10.0 mi West 9.2 mph - N/A   Scattered Clouds